sat.trackr.live / text

‹ back to catalog

STARLINK-35064

NORAD 65531 · 2025-200M

PAYLOAD ACTIVE UNKNOWN

§ Identity

Operator
Country
US
Launch date
2025-09-06
Launch site
AFWTR
Launch vehicle
Mass (kg)
RCS (m²)

Purposes: comms

External: N2YO · Heavens-Above · Gunter

§ Orbital elements

Epoch: 2026-05-25T03:21:42.455808Z

Period
95.64 min
Inclination
97.4527°
Eccentricity
0.0001892
Mean motion
15.05624239 rev/d
Perigee alt
548.3 km
Apogee alt
550.9 km
Semi-major
6,927.7 km
B*
-7.8390e-4
RAAN
214.7751°
Arg perigee
186.9942°
Mean anomaly
173.1259°
Rev number
4,063

§ Raw data

STARLINK-350641 65531U 25200M   26145.14007472 -.00011344  00000+0 -78390-3 0  99962 65531  97.4527 214.7751 0001892 186.9942 173.1259 15.05624239 40630

JSON: /api/v1/satellites/65531 · /tle

For live sub-satellite position, see the globe view (requires WebGL).

§ Visibility from observer

Set your observer location to see the next 7 days of passes ≥ 10°. The values pass through the URL so the page stays shareable.

No JS? Fill the form by hand. The geolocation button needs JavaScript.